Wind_Speed
34 35 39 40 38 39 45 52 61 66 68 63 52 49 40 32 29 28 30 33 35 27 25 29 30 37 35 43 66 74 73 70 67 66 64 61 58 64 72 64 63 65 75 74
33 34 38 38 37 37 46 51 60 66 67 62 55 46 31 25 26 24 24 28 24 20 10 9 13 30 29 29 43 63 68 67 65 64 62 59 55 54 51 54 53 55 60 71
32 34 37 36 36 35 46 52 57 65 69 62 57 47 31 25 25 24 19 21 20 17 12 10 13 15 29 25 29 47 58 62 61 62 62 58 55 52 50 51 50 50 51 50
31 33 35 36 34 35 45 51 54 63 69 69 56 51 35 25 23 22 20 21 19 17 14 15 11 14 21 24 24 32 47 53 55 57 59 57 54 53 50 50 51 51 52 51
29 31 34 34 33 34 43 49 51 62 68 70 61 50 41 25 23 26 19 21 17 15 12 9 10 11 17 21 22 26 35 44 47 50 53 55 54 52 51 50 49 49 50 50
29 29 33 33 32 33 42 46 52 59 64 67 68 50 45 28 21 23 23 17 15 14 10 7 2 6 12 16 18 21 26 31 33 39 44 48 53 53 53 51 51 50 48 47
29 29 31 33 32 31 40 44 51 57 63 66 67 56 41 40 23 23 21 16 13 13 11 5 4 7 9 12 16 18 21 26 28 33 36 42 46 51 53 52 51 50 48 46
28 29 29 32 33 29 36 43 49 53 59 63 62 61 44 38 33 20 19 15 13 11 9 4 7 7 8 9 13 20 22 24 26 28 29 32 37 42 46 50 53 51 49 46
29 28 28 30 32 28 33 39 43 50 55 59 60 63 56 35 33 23 15 16 12 12 14 11 8 9 10 11 13 18 21 24 26 27 27 27 29 33 37 39 43 46 45 39
26 29 28 30 31 27 28 34 40 45 50 55 55 57 58 50 31 30 17 11 8 9 11 13 10 10 12 13 13 16 19 20 20 20 21 23 23 25 27 29 32 32 31 30
26 27 28 31 29 25 27 32 35 39 44 51 54 54 54 57 51 31 24 12 7 7 7 11 11 11 12 13 15 18 20 20 21 21 21 21 22 24 26 29 30 24 29 32
25 28 28 28 23 22 27 28 29 34 38 44 50 50 48 53 48 46 24 20 8 8 9 11 11 12 15 14 15 18 21 21 21 22 21 21 22 26 29 32 28 30 37 35
23 27 29 25 20 24 27 30 27 26 32 39 46 46 43 47 52 47 41 18 17 10 13 16 14 14 15 16 15 19 23 22 24 24 22 22 24 30 36 32 37 31 27 28
21 24 27 26 26 28 29 29 27 22 27 33 39 42 38 40 46 47 46 32 23 20 18 18 19 16 15 16 17 19 22 22 19 17 16 17 21 25 25 28 25 22 26 24
19 21 24 24 23 27 29 29 25 20 24 30 35 37 35 32 39 44 42 44 29 25 26 24 22 18 14 14 11 11 16 14 13 12 14 13 26 31 38 19 16 23 23 20
17 19 22 23 22 25 30 31 25 19 21 26 30 31 31 28 32 38 42 41 42 37 35 30 23 20 21 17 15 13 11 12 16 15 16 10 20 21 11 18 13 28 20 17
15 18 21 20 21 25 30 32 20 16 18 21 25 27 28 25 30 33 38 39 41 36 31 28 28 24 20 16 15 19 15 13 12 13 5 7 15 23 17 11 17 20 15 14
12 16 20 19 21 25 31 28 17 16 17 18 24 25 25 28 35 37 38 37 36 38 31 25 24 19 19 17 17 18 18 18 12 11 9 7 20 22 18 18 18 7 6 12
11 12 17 18 20 23 31 23 16 14 14 18 21 24 23 30 39 43 47 47 42 38 32 28 22 16 16 17 19 17 19 20 21 18 15 10 4 13 15 11 8 7 9 14
10 9 13 15 18 22 26 27 17 14 12 17 19 21 23 27 32 36 40 43 44 46 48 46 44 43 44 44 43 43 37 35 33 28 30 26 25 23 18 14 11 10 6 4
11 6 10 11 14 18 22 25 21 16 14 16 17 19 23 25 28 31 33 35 38 39 39 39 38 38 37 36 33 31 29 26 23 20 16 14 11 10 7 6 4 2 2 5
13 5 4 6 8 11 15 18 20 18 14 14 17 21 21 22 24 26 28 30 31 32 32 32 31 31 31 30 29 26 25 22 20 17 13 9 5 4 3 1 2 4 7 9
15 8 2 3 2 5 8 12 14 15 14 17 18 20 20 20 19 21 23 24 24 24 25 25 25 24 24 24 23 22 19 18 15 13 11 9 6 5 5 6 7 8 9 10
18 13 6 2 3 3 1 4 7 10 10 11 16 19 19 17 15 15 15 17 18 18 19 19 19 19 19 20 21 21 21 21 19 15 11 9 7 6 6 8 10 11 13 16
20 18 12 7 4 5 6 3 2 4 6 7 8 12 14 13 11 9 9 9 10 12 13 15 16 18 20 23 23 24 24 22 18 15 13 12 12 11 11 11 13 16 19 21
25 22 16 11 8 6 6 8 7 4 3 4 5 5 6 7 5 3 2 4 7 9 12 15 18 20 22 24 24 23 18 14 13 16 14 12 12 13 14 16 18 20 22 25
Wind_Direction
326 331 332 337 339 346 347 342 343 341 342 339 335 326 316 314 314 310 306 308 310 302 290 279 265 229 229 224 227 226 221 222 222 226 229 232 232 226 231 236 236 232 231 230
328 332 334 339 341 344 342 340 341 348 348 347 346 341 320 321 324 315 318 318 323 309 298 324 293 227 223 224 226 226 222 221 221 223 227 230 231 229 223 224 227 229 231 233
330 332 335 341 342 345 339 341 343 346 356 355 349 351 325 325 322 322 323 333 328 322 287 296 285 252 224 220 221 223 221 221 221 222 225 228 228 225 222 223 224 228 231 233
331 334 336 340 342 343 340 340 347 351 357 360 353 358 342 335 331 327 330 333 335 331 321 273 260 246 228 221 214 219 220 221 223 224 224 226 227 228 225 224 225 229 233 235
331 334 336 339 344 341 340 338 345 350 356 1 0 2 356 340 336 338 340 335 338 339 335 331 271 246 217 211 206 215 217 222 224 224 226 226 228 229 230 228 228 230 233 236
331 337 335 339 341 339 337 338 344 350 356 3 4 2 6 352 343 335 343 346 348 358 10 13 252 212 204 194 192 205 216 223 227 224 223 225 228 230 233 233 232 233 233 235
330 335 333 339 338 337 336 337 345 352 1 7 8 6 5 11 350 344 345 353 2 10 14 47 146 178 181 171 175 191 209 217 214 213 216 219 223 228 231 234 237 239 238 237
329 332 338 338 338 338 336 340 354 355 5 8 9 12 6 9 8 342 350 5 17 39 26 63 137 147 142 152 164 176 187 199 204 204 208 214 220 225 229 231 234 239 239 237
329 334 338 338 340 340 337 342 354 357 2 8 11 15 11 8 15 8 348 8 28 35 40 51 77 103 120 134 151 165 173 183 190 197 203 210 216 220 225 228 229 234 238 235
327 335 338 340 339 337 341 344 355 358 3 8 11 18 13 15 14 23 13 11 33 49 60 54 59 81 94 113 129 148 158 167 178 188 198 206 210 211 212 215 215 222 227 219
325 336 343 340 338 339 342 344 353 357 2 4 11 14 16 17 16 18 24 14 34 68 94 79 82 87 90 105 121 136 142 149 157 162 166 173 181 189 197 203 199 201 201 204
325 338 348 347 342 343 345 347 356 358 2 4 8 11 12 21 20 19 23 34 43 97 107 104 101 105 101 94 117 131 132 140 148 156 167 177 186 192 191 182 181 193 192 201
329 343 354 355 355 348 346 346 353 0 1 4 7 10 8 22 24 22 27 46 44 72 116 123 114 110 111 99 111 131 135 148 164 169 175 177 179 178 176 187 170 182 195 194
328 344 354 351 353 350 345 339 344 353 353 359 5 6 12 20 28 28 27 47 50 73 124 128 127 114 112 118 127 145 165 166 163 166 160 169 181 187 190 169 188 171 185 193
326 344 353 349 350 348 346 342 343 346 352 359 4 7 11 16 34 32 29 37 63 88 119 124 122 119 111 109 129 136 153 154 146 135 141 179 190 188 171 145 145 183 168 183
325 343 357 352 347 347 350 346 339 348 350 359 3 11 15 16 31 43 41 43 58 100 114 114 117 112 104 100 115 115 123 136 119 135 132 169 197 198 189 151 157 188 186 202
321 338 357 359 352 348 348 348 350 5 3 9 19 27 26 28 41 52 55 57 61 90 110 110 124 109 106 103 108 111 102 109 136 134 87 51 134 161 178 198 163 161 160 169
319 338 356 3 357 355 356 358 4 14 23 32 41 48 48 57 66 64 64 68 72 75 90 99 90 90 75 79 100 78 66 71 88 91 88 50 113 126 144 148 163 174 198 208
317 338 1 12 6 1 6 12 19 23 31 43 56 66 71 78 79 80 76 74 73 74 82 87 82 78 76 74 80 69 67 63 64 71 81 83 151 156 148 161 193 198 200 209
309 337 6 14 12 11 10 19 24 33 42 56 64 72 91 91 88 85 84 83 83 81 81 80 76 74 70 72 73 71 74 72 74 72 71 74 71 79 92 90 85 96 108 149
293 328 15 21 17 21 18 18 28 43 58 61 63 77 100 98 94 92 88 85 83 83 84 83 83 82 79 76 70 67 65 64 69 76 75 76 84 92 100 95 98 114 265 283
280 298 14 31 34 27 30 28 28 44 62 64 82 97 104 101 98 97 92 88 87 84 82 79 75 73 70 69 68 64 62 59 58 57 53 48 44 43 48 21 287 273 274 285
269 275 289 42 78 42 36 40 42 42 71 90 95 100 104 105 104 94 88 85 79 75 73 68 64 59 53 48 43 38 35 33 26 18 11 8 4 345 315 308 308 311 316 316
253 263 245 205 211 182 46 53 58 63 70 82 102 109 116 116 107 98 89 82 75 63 54 49 43 38 30 23 18 16 12 7 6 4 357 355 348 336 316 304 303 308 309 308
246 255 252 227 221 221 218 235 146 97 101 110 117 123 125 124 117 108 95 75 49 32 22 15 11 5 359 356 357 357 357 1 8 15 11 0 354 351 342 331 320 315 314 312
241 243 249 237 223 233 223 226 238 223 178 153 160 161 157 152 148 127 51 1 346 340 338 337 339 339 339 342 346 353 2 7 359 348 347 343 335 329 325 321 316 314 312 310
Height
5690 5684 5675 5668 5661 5653 5646 5636 5623 5608 5589 5569 5553 5537 5523 5516 5510 5505 5498 5490 5481 5473 5469 5468 5470 5475 5483 5490 5500 5512 5529 5546 5560 5571 5581 5591 5601 5611 5620 5631 5639 5646 5655 5663
5685 5677 5670 5662 5655 5647 5639 5629 5617 5601 5581 5561 5546 5530 5515 5510 5505 5498 5492 5485 5477 5470 5466 5464 5464 5468 5475 5482 5491 5504 5517 5534 5547 5559 5570 5580 5591 5602 5611 5621 5629 5638 5645 5655
5679 5672 5664 5657 5649 5643 5633 5623 5610 5594 5576 5555 5539 5526 5512 5506 5501 5495 5489 5482 5476 5470 5466 5464 5464 5465 5470 5477 5485 5496 5509 5522 5537 5549 5559 5571 5582 5594 5605 5613 5622 5630 5638 5645
5675 5666 5659 5652 5645 5638 5629 5618 5605 5590 5572 5553 5535 5526 5511 5502 5497 5491 5485 5478 5473 5469 5465 5464 5464 5465 5467 5473 5480 5490 5501 5515 5528 5540 5552 5562 5573 5584 5595 5605 5613 5621 5629 5636
5671 5662 5654 5647 5641 5634 5625 5614 5603 5588 5571 5553 5537 5522 5509 5501 5494 5488 5483 5478 5472 5468 5465 5462 5463 5464 5466 5470 5476 5487 5497 5509 5522 5534 5545 5555 5566 5575 5585 5596 5606 5614 5621 5628
5665 5658 5651 5643 5637 5629 5621 5610 5600 5587 5570 5554 5537 5520 5509 5500 5494 5487 5480 5477 5472 5468 5465 5463 5463 5464 5466 5470 5476 5485 5496 5507 5518 5529 5539 5549 5557 5567 5576 5586 5596 5605 5612 5619
5661 5654 5647 5640 5633 5626 5617 5608 5597 5586 5570 5554 5537 5522 5508 5500 5494 5487 5482 5477 5473 5469 5467 5465 5465 5466 5468 5471 5476 5484 5494 5505 5514 5524 5533 5542 5550 5559 5569 5577 5585 5594 5603 5612
5658 5651 5643 5635 5629 5622 5614 5605 5595 5584 5571 5557 5542 5525 5512 5501 5493 5488 5483 5479 5475 5472 5471 5469 5468 5469 5470 5474 5479 5485 5493 5502 5511 5520 5528 5536 5544 5552 5560 5569 5577 5585 5595 5605
5653 5647 5639 5631 5625 5619 5612 5604 5597 5586 5573 5559 5547 5531 5516 5502 5495 5488 5484 5481 5478 5476 5474 5473 5472 5472 5474 5477 5481 5487 5494 5501 5509 5516 5524 5532 5540 5547 5554 5562 5570 5579 5587 5598
5650 5644 5635 5629 5623 5616 5610 5604 5595 5587 5574 5562 5550 5535 5523 5508 5497 5490 5485 5483 5480 5478 5478 5478 5477 5477 5478 5481 5485 5489 5494 5501 5508 5514 5521 5528 5536 5543 5550 5558 5566 5574 5583 5593
5646 5641 5634 5626 5619 5613 5608 5601 5594 5588 5577 5566 5554 5542 5530 5515 5502 5493 5487 5482 5482 5481 5481 5481 5482 5483 5484 5486 5489 5493 5497 5502 5509 5515 5521 5528 5534 5541 5548 5555 5562 5571 5580 5588
5643 5637 5630 5624 5617 5611 5606 5600 5594 5587 5580 5570 5559 5549 5538 5523 5510 5498 5490 5486 5484 5484 5484 5485 5486 5487 5489 5492 5495 5498 5503 5508 5512 5518 5523 5529 5534 5539 5546 5553 5559 5568 5575 5582
5641 5634 5626 5622 5618 5611 5605 5599 5593 5588 5581 5572 5562 5554 5544 5532 5519 5506 5496 5489 5488 5487 5488 5489 5490 5492 5496 5499 5501 5505 5508 5511 5513 5518 5523 5528 5533 5538 5545 5550 5557 5566 5573 5579
5638 5632 5624 5619 5614 5609 5603 5598 5592 5588 5582 5575 5567 5558 5549 5541 5528 5517 5505 5494 5492 5490 5492 5494 5495 5499 5502 5505 5507 5509 5510 5514 5520 5525 5531 5535 5538 5542 5547 5553 5559 5565 5573 5579
5635 5630 5623 5617 5614 5608 5603 5596 5591 5587 5582 5577 5570 5562 5554 5547 5538 5527 5516 5504 5497 5496 5499 5502 5503 5506 5510 5513 5515 5517 5520 5524 5528 5533 5537 5539 5539 5544 5550 5555 5561 5567 5573 5579
5632 5629 5622 5616 5613 5608 5602 5595 5589 5586 5583 5578 5572 5566 5558 5552 5545 5538 5529 5518 5511 5506 5509 5514 5516 5517 5519 5521 5524 5526 5529 5531 5535 5536 5541 5542 5543 5548 5553 5559 5564 5569 5574 5578
5630 5626 5621 5615 5612 5608 5602 5594 5589 5587 5583 5580 5575 5570 5563 5558 5552 5545 5539 5532 5527 5525 5524 5523 5526 5528 5528 5529 5531 5535 5536 5538 5541 5542 5545 5546 5545 5551 5557 5560 5566 5570 5575 5578
5628 5624 5619 5614 5612 5609 5602 5593 5590 5588 5585 5581 5577 5573 5570 5565 5559 5553 5548 5544 5540 5538 5538 5538 5539 5541 5542 5542 5542 5543 5545 5546 5549 5550 5551 5552 5554 5558 5562 5566 5569 5571 5575 5579
5626 5622 5619 5615 5612 5609 5602 5595 5593 5591 5588 5584 5581 5577 5575 5572 5568 5563 5559 5555 5552 5549 5549 5550 5551 5550 5550 5551 5552 5553 5553 5553 5553 5556 5559 5561 5564 5567 5569 5571 5574 5577 5579 5580
5623 5621 5618 5614 5612 5609 5604 5598 5595 5593 5591 5587 5585 5583 5580 5578 5575 5573 5569 5566 5565 5563 5563 5562 5560 5560 5561 5561 5562 5562 5563 5563 5562 5564 5566 5567 5568 5570 5573 5576 5577 5579 5580 5582
5621 5619 5616 5614 5612 5610 5606 5602 5598 5596 5597 5591 5589 5588 5587 5585 5584 5582 5579 5578 5576 5575 5574 5573 5573 5572 5572 5571 5570 5570 5569 5571 5572 5574 5575 5576 5578 5579 5580 5579 5580 5581 5582 5582
5618 5616 5614 5613 5612 5612 5608 5606 5602 5600 5597 5595 5593 5592 5592 5591 5590 5588 5587 5586 5585 5584 5583 5582 5581 5581 5580 5580 5580 5580 5580 5581 5581 5581 5581 5581 5582 5581 5580 5580 5580 5581 5581 5581
5615 5614 5613 5612 5612 5611 5610 5608 5606 5603 5601 5599 5598 5597 5596 5595 5595 5594 5593 5591 5591 5590 5589 5588 5587 5587 5586 5585 5585 5585 5585 5585 5585 5584 5583 5582 5580 5578 5578 5579 5579 5579 5578 5577
5610 5610 5610 5609 5609 5609 5609 5609 5607 5606 5605 5603 5601 5600 5600 5599 5598 5598 5597 5597 5596 5595 5594 5593 5592 5591 5590 5589 5588 5588 5586 5585 5583 5581 5580 5579 5579 5578 5578 5577 5577 5576 5575 5574
5605 5606 5606 5606 5605 5606 5607 5608 5607 5607 5607 5605 5605 5603 5602 5602 5601 5601 5600 5599 5599 5598 5597 5595 5594 5593 5591 5590 5588 5587 5584 5582 5581 5580 5579 5577 5576 5576 5575 5575 5574 5572 5571 5569
5599 5601 5602 5602 5602 5602 5603 5605 5605 5605 5606 5606 5606 5605 5605 5604 5604 5603 5602 5601 5600 5599 5598 5596 5595 5592 5590 5588 5586 5584 5583 5581 5580 5578 5577 5576 5575 5574 5573 5571 5569 5567 5564 5562